EHI
0 0 0 0 0 0 0 0 0 0 0 0 0 0 0 0 0 0 0 0 0 0 0 0 0 0 0 0 0 0 0 0 0 0 0 0 0 0 0 0 0 0 0
0 0 0 0 0 0 0 0 0 0 0 0 0 0 0 0 0 0 0 0 0 0 0 0 0 0 0 0 0 0 0 0 0 0 0 0 0 0 0 0 0 0 0
0 0 0 0 0 0 0 0 0 0 0 0 0 0 0 0 0 0 0 0 0 0 0 0 0 0 0 0 0 0 0 0 0 0 0 0 0 0 0 0 0 0 0
0 0 0 0 0 0 0 0 0 0 0 0 0 0 0 0 0 0 0 0 0 0 0 0 0 0 0 0 0 0 0 0 0 0 0 0 0 0 0 0 0 0 0
0 0 0 0 0 0 0 0 0 0 0 0 0 0 0 0 0 0 0 0 0 0 0 0 0 0 0 0 0 0 0 0 0 0 0 0 0 0 0 0 0 0 0
0 0 0 0 0 0 0 0 0 0 0 0 0 0 0 0 0 0 0 0 0 0 0 0 0 0 0 0 0 0 0 0 0 0 0 0 0 0 0 0 0 0 0
0 0 0 0 0 0 0 0 0 0 0 0 0 0 0 0 0 0 0 0 0 0 0 0 0 0 0 0 0 0 0 0 0 0 0 0 0 0 0 0 0 0 0
0 0 0 0 0 0 0 0 0 0 0 0 0 0 0 0 0 0 0 0 0 0 0 0 0 0 0 0 0 0 0 0 0 0 0 0 0 0 0 0 0 0 0
0 0 0 0 0 0 0 0 0 0 0 0 0 0 0 0 0 0 0 0 0 0 0 0 0 0 0 0 0 0 0 0 0 0 0 0 0 0 0 0 0 0 0
0 0 0 0 0 0 0 0 0 0 0 0 0 0 0 0 0 0 0 0 0 0 0 0 0 0 0 0 0 0 0 0 0 0 0 0 0 0 0 0 0 0 0
0 0 0 0 0 0 0 0 0 0 0 0 0 0 0 0 0 0 0 0 0 0 0 0 0 0 0 0 0 0 0 0 0 0 0 0 0 0 0 0 0 0 0
0 0 0 0 0 0 0 0 0 0 0 0 0 0 0 0 0 0 0 0 0 0 0 0 0 0 0 0 0 0 0 0 0 0 0 0 0 0 0 0 0 0 0
0 0 0 0 0 0 0 0 0 0 0 0 0 0 0 0 0 0 0 0 0 0 0 0 0 0 0 0 0 0 0 0 0 0 0 0 0 0 0 0 0 0 0
0 0 0 0 0 0 0 0 0 0 0 0 0 0 0 0 0 0 0 0 0 0 0 0 0 0 0 0 0 0 0 0 0 0 0 0 0 0 0 0 0 0 0
0 0 0 0 0 0 0 0 0 0 0 0 0 0 0 0 0 0 0 0 0 0 0 0 0 0 0 0 0 0 0 0 0 0 0 0 0 0 0 0 0 0 0
0 0 0 0 0 0 0 0 0 0 0 0 0 0 0 0 0 0 0 0 0 0 0 0 0 0 0 0 0 0 0 0 0 0 0 0 0 0 0 0 0 0 0
0 0 0 0 0 0 0 0 0 0 0 0 0 0 0 0 0 0 0 0 0 0 0 0 0 0 0 0 0 0 0 0 0 0 0 0 0 0 0 0 0 0 0
0 0 0 0 0 0 0 0 0 0 0 0 0 0 0 0 0 0 0 0 0 0 0 0 0 0 0 0 0 0 0 0 0 0 0 0 0 0 0 0 0 0 0
0 0 0 0 0 0 0 0 0 0 0 0 0 0 0 0 0 0 0 0 0 0 0 0 0 0 0 0 0 0 0 0 0 0 0 0 0 0 0 0 0 0 0
0 0 0 0 0 0 0 0 0 0 0 0 0 0 0 0 0 0 0 0 0 0 0 0 0 0 0 0 0 0 0 0 0 0 0 0 0 0 0 0 0 0 0
0 0 0 0 0 0 0 0 0 0 0 0 0 0 0 0 0 0 0 0 0 0 0 0 0 0 0 0 0 0 0 0 0 0 0 0 0 0 0 0 0 0 0
0 0 0 0 0 0 0 0 0 0 0 0 0 0 0 0 0 0 0 0 0 0 0 0 0 0 0 0 0 0 0 0 0 0 0 0 0 0 0 0 0 0 0
0 0 0 0 0 0 0 0 0 0 0 0 0 0 0 0 0 0 0 0 0 0 0 0 0 0 0 0 0 0 0 0 0 0 0 0 0 0 0 0 0 0 0
0 0 0 0 0 0 0 0 0 0 0 0 0 0 0 0 0 0 0 0 0 0 0 0 0 0 0 0 0 0 0 0 0 0 0 0 0 0 0 0 0 0 0
0 0 0 0 0 0 0 0 0 0 0 0 0 0 0 0 0 0 0 0 0 0 0 0 0 0 0 0 0 0 0 0 0 0 0 0 0 0 0 0 0 0 0
0 0 0 0 0 0 0 0 0 0 0 0 0 0 0 0 0 0 0 0 0 0 0 0 0 0 0 0 0 0 0 0 0 0 0 0 0 0 0 0 0 0 0
Wind_Speed
5 4 4 4 5 5 6 6 6 6 6 7 8 8 8 9 8 7 8 9 9 9 9 10 10 9 8 7 7 7 7 7 10 10 8 9 10 10 10 9 9 9 10
5 4 4 5 5 6 6 6 6 6 7 7 8 8 9 9 8 8 9 10 9 9 10 10 10 9 9 8 7 8 7 7 8 11 9 8 9 9 9 10 10 9 8
5 4 5 5 5 6 6 6 6 7 7 7 7 8 9 9 8 8 8 8 8 8 9 10 10 10 9 8 8 7 6 7 6 7 9 7 6 7 9 10 10 8 10
5 4 5 5 5 6 6 6 7 7 7 8 8 8 9 9 8 8 8 8 8 8 8 8 9 9 9 9 8 7 6 6 6 7 8 7 7 8 8 9 10 9 10
5 5 5 5 5 5 6 7 7 7 9 8 8 8 8 8 8 9 7 7 8 8 8 8 9 13 16 13 11 8 7 5 5 6 7 8 8 9 8 8 10 10 11
5 5 5 5 5 6 6 7 7 8 8 8 8 8 9 8 17 21 14 6 7 8 8 8 9 10 15 18 20 19 15 9 7 5 5 8 9 9 9 9 10 10 7
5 5 5 5 6 6 7 7 7 8 7 8 8 8 9 11 21 21 21 10 7 7 8 7 8 9 13 8 12 16 14 18 16 8 6 7 8 8 9 10 9 10 10
6 6 6 6 7 6 6 7 7 7 7 7 7 8 9 12 21 21 21 9 7 8 8 8 7 8 10 10 7 7 7 8 12 8 6 8 8 8 7 8 9 10 10
7 7 7 6 6 6 6 7 6 6 7 7 7 8 9 11 19 21 21 7 8 9 8 7 7 7 14 17 7 7 8 7 13 17 17 15 17 17 12 6 7 8 8
9 8 6 5 5 6 7 6 6 6 7 7 7 7 8 9 17 21 21 6 8 7 6 6 11 12 15 16 6 5 8 8 8 9 11 12 10 10 14 6 6 6 6
8 6 5 5 6 6 6 5 6 6 6 6 7 7 7 10 15 20 22 9 7 6 6 4 5 15 16 16 13 5 10 10 6 7 7 6 6 5 6 5 5 5 6
7 6 6 6 6 5 5 6 5 5 6 6 6 7 6 7 13 17 21 19 16 7 6 5 7 14 15 15 11 13 16 12 5 6 6 6 6 6 6 7 7 7 7
7 6 6 6 5 5 5 5 4 4 4 5 5 6 6 5 9 18 20 20 20 10 6 13 15 15 13 9 12 16 12 5 5 5 6 6 6 7 7 6 7 7 8
8 7 6 5 5 5 4 4 3 3 4 4 5 6 7 6 6 7 7 8 12 10 7 10 14 13 10 11 10 8 5 5 5 5 6 6 6 6 6 7 7 7 6
8 7 6 5 4 4 4 4 4 4 5 5 4 4 6 7 10 18 13 8 8 8 8 4 3 4 4 4 4 4 4 4 5 5 5 6 7 8 8 7 6 6 5
8 7 6 4 4 4 3 4 8 8 11 12 11 10 8 12 18 19 19 19 18 17 9 5 5 5 5 5 5 5 4 4 4 5 5 6 7 8 8 7 7 6 6
10 8 6 5 4 4 3 3 4 6 9 10 10 12 12 14 17 17 17 17 16 14 6 5 5 5 5 5 4 4 4 4 4 4 5 6 6 7 8 8 8 7 6
10 10 8 5 5 4 4 3 3 3 4 4 7 11 12 14 16 15 15 12 8 7 5 5 6 6 5 5 5 4 4 4 4 4 5 5 6 6 7 7 7 8 7
11 7 7 5 5 4 4 3 3 4 4 4 4 6 9 12 13 13 12 5 6 6 6 6 6 6 5 5 5 5 4 3 4 4 4 5 5 6 6 7 7 11 8
10 14 11 6 5 5 4 4 3 3 3 3 4 4 4 5 4 6 5 5 5 6 6 6 6 6 5 5 5 4 4 3 3 3 4 4 5 5 6 7 7 7 6
9 11 16 8 6 5 5 4 4 3 3 3 4 5 8 3 4 5 5 5 5 5 6 6 6 6 5 5 4 4 4 3 2 2 3 4 5 5 5 6 6 7 6
10 9 8 7 6 6 5 4 4 4 4 4 3 4 8 3 3 4 4 5 4 4 5 5 5 5 5 5 4 4 4 3 2 2 3 3 4 5 5 5 6 6 6
10 10 9 8 7 9 7 5 5 4 4 3 3 3 2 2 3 3 4 4 4 5 5 5 6 5 5 4 4 3 3 3 1 1 2 3 4 4 4 5 6 6 6
12 11 10 9 8 7 6 6 5 5 4 3 3 2 2 2 3 3 4 4 4 5 5 5 5 7 8 6 4 3 2 2 1 1 1 2 3 4 4 4 5 6 6
12 11 11 10 9 8 7 6 6 5 4 4 3 2 2 2 2 3 3 3 4 5 7 7 5 6 8 8 6 3 3 3 2 2 1 1 2 3 3 4 4 4 5
13 12 11 9 9 8 8 7 6 6 5 4 3 2 2 2 2 2 3 3 4 5 6 5 5 7 8 6 5 4 3 2 2 3 2 1 2 2 3 3 4 4 4
Wind_Direction
217 230 252 260 264 268 269 272 277 282 286 288 290 292 294 295 298 302 304 306 306 307 310 314 313 311 311 306 296 285 278 276 282 291 291 295 300 302 306 304 297 294 290
211 225 247 258 264 267 272 278 283 285 285 285 287 290 293 298 298 303 307 308 305 306 311 312 314 316 314 311 310 303 294 292 290 298 302 301 302 307 311 310 311 305 299
204 224 248 260 266 272 278 283 285 284 284 284 285 288 290 292 293 295 295 298 299 301 305 308 311 314 313 312 312 316 314 320 314 306 307 310 311 324 324 318 314 310 306
201 223 246 258 268 275 281 283 283 283 284 284 283 284 285 287 287 286 285 287 290 294 297 301 307 310 309 312 317 318 321 321 323 321 318 322 325 331 331 329 324 324 315
200 223 243 257 270 278 283 284 284 284 287 283 283 284 284 287 286 289 277 284 284 288 293 295 302 317 325 329 329 328 329 324 325 324 323 327 329 334 334 328 322 319 310
200 224 243 259 269 275 279 279 281 281 280 281 283 286 288 292 302 307 310 286 282 282 287 291 298 309 320 329 330 333 337 333 327 320 320 322 318 319 318 320 322 323 316
203 225 240 251 260 263 273 280 280 280 281 284 284 286 286 291 303 307 312 312 290 281 278 282 296 307 319 306 319 330 332 332 330 322 306 300 300 303 307 311 315 313 298
208 225 235 242 252 260 267 274 278 279 282 283 285 286 286 292 306 310 314 315 292 284 278 274 275 281 296 310 316 320 314 317 320 317 290 281 287 288 287 296 303 304 292
213 223 229 234 247 259 268 273 276 282 284 283 285 286 287 293 305 309 314 301 293 290 286 280 286 274 299 317 323 314 312 310 323 325 324 323 324 326 328 324 320 320 314
212 218 223 229 243 255 263 272 278 281 281 285 287 286 288 290 306 314 319 309 301 296 293 290 303 307 310 320 319 308 309 308 319 323 323 323 322 322 330 326 313 312 311
203 208 218 229 240 251 262 270 276 281 286 289 292 294 296 305 316 319 321 325 315 311 306 298 291 312 320 326 331 314 313 329 330 319 317 317 320 319 315 307 293 285 284
190 201 218 231 241 249 256 267 272 282 293 296 301 303 301 308 319 320 326 331 333 322 310 299 294 314 325 331 333 327 334 340 326 321 324 326 327 325 317 309 298 284 267
184 203 220 232 239 242 249 262 275 283 288 295 301 305 308 311 316 323 326 331 333 330 314 322 325 328 333 330 326 333 341 333 320 328 328 325 319 313 312 311 305 297 285
189 205 217 226 238 246 250 250 255 266 277 287 295 301 306 309 307 309 311 317 326 324 317 320 326 329 330 329 333 337 334 326 333 326 323 319 318 321 322 323 321 321 312
191 204 213 218 226 243 250 249 258 240 253 274 264 272 296 303 308 321 329 326 324 319 329 320 315 317 318 319 323 324 325 331 336 326 325 328 330 332 330 329 323 325 321
193 202 205 207 216 228 247 274 285 283 288 292 292 295 296 305 316 326 330 333 334 338 344 329 323 323 322 324 328 327 326 328 329 328 328 330 333 332 330 331 333 330 327
192 194 196 200 208 220 229 249 281 300 304 308 307 308 310 318 325 328 332 338 340 346 345 326 323 321 319 320 318 318 321 323 323 326 329 330 332 333 334 337 338 335 332
189 199 198 195 202 211 218 230 247 271 296 301 312 315 321 328 330 332 339 344 338 340 329 325 323 320 316 317 316 316 316 320 325 328 327 328 331 333 336 339 338 338 336
187 191 193 188 198 205 210 222 240 256 269 285 297 311 326 332 333 337 345 341 325 325 325 323 320 319 316 313 313 312 311 312 320 324 325 327 330 333 336 337 337 341 345
188 195 189 188 195 201 205 216 233 247 263 277 287 291 309 327 325 328 333 325 323 321 322 320 319 317 317 311 309 311 312 310 318 323 324 327 329 333 336 337 340 340 339
180 192 196 191 193 198 200 209 220 230 246 263 271 289 317 322 312 316 322 325 324 322 322 320 318 316 316 312 310 311 311 308 311 320 326 328 332 335 335 337 339 341 341
175 179 183 186 190 197 199 203 211 222 237 255 270 294 317 322 306 310 316 320 320 318 317 315 313 312 314 314 313 313 313 309 311 322 328 332 335 337 339 343 346 346 350
174 176 180 185 188 201 206 202 207 215 228 242 259 274 295 299 302 307 313 316 317 318 319 317 316 316 317 319 317 312 313 314 301 317 341 343 343 343 344 346 349 353 357
176 177 180 184 187 192 195 199 204 210 216 229 242 257 272 284 294 305 311 313 317 319 320 319 317 318 321 324 323 318 310 326 23 47 20 360 351 346 347 350 352 355 0
177 178 181 183 186 189 193 196 199 202 208 218 225 239 262 276 288 299 307 311 318 320 321 321 318 321 325 325 323 320 324 356 48 81 52 21 360 352 350 353 357 4 10
178 179 180 181 184 186 188 192 195 194 201 209 211 218 237 254 275 291 301 310 319 318 317 319 318 321 322 325 321 327 340 4 73 79 81 42 16 7 7 8 8 18 23